[[[{"header":{"parameterUnit":"kt","parameterCategory":2,"dx":1,"dy":1,"la1":30.253999710083008,"la2":30.299108505249023,"lo1":-89.0895004272461,"lo2":-89.04439544677734,"nx":28,"ny":28,"refTime":"2022-09-27T15:00:00:Z","depth":"0","parameterNumber":2,"parameterNumberName":"U-component_of_CURRENTS"},"data":[0.1997,0.2052,0.2096,0.2159,0.2213,0.2249,0.2301,0.2412,0.2621,0.301,0.3373,0.373,0.422,0.4741,0.4762,0.4617,0.4174,0.4199,0.4028,0.4197,0.4188,0.4179,0.4094,0.4267,0.4267,0.3492,0.3488,0.3485,0.2004,0.2059,0.213,0.2217,0.2274,0.233,0.246,0.2514,0.2696,0.305,0.3337,0.3879,0.4171,0.4405,0.466,0.4602,0.4298,0.4475,0.4162,0.3986,0.4288,0.4211,0.4412,0.4412,0.4412,0.4412,0.4412,0.4412,0.2051,0.2073,0.2172,0.224,0.2316,0.2397,0.2429,0.2608,0.278,0.3068,0.3355,0.3693,0.4085,0.4517,0.4558,0.46,0.4495,0.4444,0.4463,0.4323,0.4092,0.4397,0.4701,0.4702,0.4702,0.4702,0.4703,0,0.2102,0.2145,0.2203,0.2283,0.2354,0.2412,0.2531,0.261,0.2831,0.3005,0.3319,0.3526,0.3978,0.4225,0.4503,0.4546,0.425,0.4446,0.4338,0.4088,0.3913,0.373,0.3941,0.4231,0.4229,0.4227,0.4226,0.4225,0.2181,0.2195,0.2295,0.2338,0.2378,0.2443,0.2512,0.2654,0.2769,0.307,0.3175,0.3476,0.37,0.4075,0.4217,0.4398,0.4173,0.4388,0.4187,0.4075,0.4079,0.3918,0.374,0.4202,0.4205,0.4208,0.421,0,0.2229,0.229,0.2325,0.2427,0.2453,0.2491,0.2607,0.2696,0.2834,0.2999,0.305,0.3288,0.3541,0.365,0.3839,0.3857,0.3951,0.4057,0.397,0.3984,0.3994,0.3982,0.4135,0.3962,0.4282,0.4287,0.4291,0,0.2311,0.2327,0.2416,0.2432,0.2484,0.2555,0.263,0.2716,0.2857,0.2972,0.3051,0.3178,0.3264,0.3427,0.3451,0.3665,0.3664,0.3665,0.3693,0.3601,0.3601,0.3544,0.3524,0.358,0.3578,0.3576,0.3574,0,0.2347,0.2399,0.2431,0.245,0.2528,0.2567,0.2615,0.2722,0.2784,0.2925,0.2998,0.3105,0.3179,0.3256,0.3333,0.3242,0.3548,0.3425,0.3578,0.3586,0.358,0.3581,0.3704,0.3571,0.3571,0.357,0.3569,0,0.2393,0.2424,0.2453,0.2525,0.2537,0.2556,0.2654,0.2689,0.2801,0.2843,0.2914,0.2928,0.3021,0.2937,0.3116,0.3035,0.3088,0.3118,0.3129,0.3231,0.3175,0.336,0.354,0.3437,0.3224,0.322,0.3217,0,0.2431,0.2454,0.2476,0.2499,0.2511,0.2549,0.2588,0.263,0.2668,0.2737,0.2749,0.2787,0.2724,0.2741,0.2799,0.2853,0.2939,0.2796,0.3008,0.3016,0.3118,0.3286,0.3224,0.3478,0.3173,0.3178,0.3181,0,0.2445,0.2485,0.2483,0.2513,0.2527,0.2522,0.2553,0.2592,0.2651,0.2622,0.2704,0.2664,0.2679,0.2676,0.2655,0.2712,0.2866,0.2698,0.2701,0.2828,0.3104,0.321,0.325,0.2856,0.2861,0.2865,0.3146,0,0.2518,0.2517,0.2503,0.253,0.2527,0.2512,0.2533,0.2535,0.2539,0.2559,0.2582,0.2537,0.2558,0.2537,0.251,0.2603,0.2622,0.2582,0.2578,0.2641,0.2752,0.278,0.2434,0.2433,0.2432,0.2431,0,0,0.2548,0.2541,0.2537,0.2539,0.2546,0.2543,0.2547,0.254,0.2509,0.2534,0.25,0.2494,0.2451,0.249,0.2497,0.2453,0.252,0.2462,0.2584,0.2601,0.2617,0.2727,0.2754,0.243,0.2429,0.2429,0.2429,0,0.2576,0.2562,0.2554,0.2553,0.255,0.2548,0.2546,0.2529,0.2531,0.2501,0.2503,0.2494,0.2425,0.2439,0.2433,0.2437,0.2475,0.2422,0.2483,0.2573,0.2591,0.2607,0.2718,0.2744,0.2426,0.2426,0.2427,0,0.2624,0.2624,0.2616,0.2594,0.2587,0.2584,0.2584,0.2553,0.2563,0.2519,0.25,0.2473,0.2444,0.2419,0.2403,0.2392,0.2452,0.2369,0.2373,0.24,0.2492,0.2511,0.2529,0.2315,0.2315,0.2315,0,0,0.2652,0.264,0.2639,0.2603,0.26,0.2594,0.2576,0.2574,0.2546,0.2531,0.2499,0.2472,0.2452,0.2428,0.2391,0.2348,0.24,0.2358,0.2363,0.2367,0.2396,0.2489,0.2506,0.2314,0.2314,0.2314,0,0,0.2661,0.2668,0.2687,0.2641,0.263,0.2606,0.2576,0.2582,0.2542,0.2544,0.2513,0.2499,0.2465,0.2429,0.2428,0.2403,0.2379,0.2377,0.243,0.2436,0.2441,0.249,0.2415,0,0,0,0,0,0.2717,0.2673,0.2691,0.2685,0.2644,0.2606,0.2598,0.2586,0.2603,0.2578,0.2553,0.2536,0.2436,0.2433,0.2415,0.2433,0.2308,0.2309,0.231,0.2368,0.2375,0.238,0,0,0,0,0,0,0.2715,0.2709,0.2692,0.2671,0.2661,0.2607,0.2628,0.2623,0.2605,0.2605,0.2543,0.2534,0.2506,0.244,0.2424,0.2442,0.242,0.2308,0.2309,0.231,0.237,0.2376,0.238,0,0,0,0,0,0.2713,0.2708,0.2649,0.267,0.2662,0.2641,0.2629,0.2625,0.2606,0.2559,0.255,0.2601,0.2506,0.2491,0.243,0.2452,0.2431,0.2425,0.2309,0.2309,0.231,0.2373,0,0,0,0,0,0,0.2712,0.2692,0.2646,0.2643,0.2686,0.2643,0.2637,0.2627,0.2559,0.2552,0.2614,0.2615,0.2506,0.2494,0.2482,0.2459,0.244,0.2434,0.243,0.2309,0.231,0.231,0,0,0,0,0,0,0.2695,0.2689,0.2644,0.2665,0.2663,0.2644,0.264,0.2575,0.2557,0.2616,0.2617,0.2615,0.2517,0.2495,0.2486,0.2385,0.2447,0.2441,0.2437,0.2435,0.231,0.231,0,0,0,0,0,0,0.2692,0.2687,0.2665,0.2664,0.2663,0.2617,0.2584,0.2535,0.2598,0.2618,0.2601,0.2603,0.2519,0.2509,0.2489,0.2393,0.2387,0.2446,0.2443,0.244,0.2438,0,0,0,0,0,0,0,0.269,0.2733,0.2673,0.2663,0.2662,0.261,0.2608,0.2607,0.2598,0.26,0.2601,0.2602,0.2479,0.2473,0.2466,0.2398,0,0,0.2447,0.2444,0,0,0,0,0,0,0,0,0.2735,0.2734,0.2673,0.2673,0.2672,0.261,0.2608,0.2607,0.2598,0.2599,0.2601,0.2602,0.2477,0.2472,0.2467,0,0,0,0,0,0,0,0,0,0,0,0,0,0,0,0.2673,0.2673,0,0.261,0.2609,0.2607,0.2598,0.2599,0.26,0.2601,0.2476,0.2472,0.2467,0,0,0,0,0,0,0,0,0,0,0,0,0,0,0,0,0,0,0,0,0,0,0,0,0,0,0,0,0,0,0,0,0,0,0,0,0,0,0,0,0,0,0,0,0,0,0,0,0,0,0,0,0,0,0,0,0,0,0,0,0,0,0,0,0,0,0,0,0]}],[{"header":{"parameterUnit":"kt","parameterCategory":2,"dx":1,"dy":1,"la1":30.253999710083008,"la2":30.299108505249023,"lo1":-89.0895004272461,"lo2":-89.04439544677734,"nx":28,"ny":28,"refTime":"2022-09-27T15:00:00:Z","depth":"0","parameterNumber":3,"parameterNumberName":"V-component_of_CURRENTS"},"data":[0.0188,0.0309,0.0353,0.0561,0.064,0.0766,0.0854,0.0955,0.0999,0.0974,0.0844,0.0706,0.0013,-0.1547,-0.2815,-0.3087,-0.3546,-0.3613,-0.3868,-0.3305,-0.325,-0.3197,-0.3255,-0.3741,-0.3743,-0.4615,-0.4624,-0.4631,0.0099,0.0162,0.0267,0.0376,0.0495,0.0495,0.0655,0.0735,0.0894,0.0941,0.0972,0.058,-0.0069,-0.0765,-0.1722,-0.228,-0.2487,-0.262,-0.2825,-0.292,-0.2075,-0.209,-0.2336,-0.2336,-0.2335,-0.2335,-0.2335,-0.2334,-0.0042,0.0021,0.0085,0.0179,0.0262,0.0386,0.0474,0.0579,0.0712,0.082,0.077,0.0705,0.0168,-0.052,-0.0903,-0.1649,-0.1675,-0.187,-0.2066,-0.2168,-0.2351,-0.1421,-0.1532,-0.1532,-0.1532,-0.1532,-0.1531,0,-0.0161,-0.0147,-0.0097,-0.0009,0.0066,0.015,0.0242,0.0333,0.0376,0.0452,0.0538,0.0499,0.0137,-0.0213,-0.0723,-0.0991,-0.1534,-0.1308,-0.1633,-0.1913,-0.2084,-0.2271,-0.1303,-0.136,-0.1359,-0.1358,-0.1357,-0.1357,-0.0289,-0.0257,-0.0218,-0.0168,-0.0157,-0.0082,-0.0011,0.0001,0.0096,0.0162,0.024,0.0129,0.0084,-0.0293,-0.0658,-0.1024,-0.1318,-0.1269,-0.1301,-0.1623,-0.1863,-0.1996,-0.2128,-0.1344,-0.1346,-0.1347,-0.1348,0,-0.0348,-0.038,-0.0326,-0.0312,-0.0297,-0.0228,-0.0167,-0.0077,-0.0069,0.004,0.0045,-0.0009,-0.0157,-0.0399,-0.0628,-0.0819,-0.1224,-0.1118,-0.1119,-0.1163,-0.1599,-0.1783,-0.2122,-0.2296,-0.1301,-0.1303,-0.1304,0,-0.0459,-0.0426,-0.0456,-0.0433,-0.0343,-0.0384,-0.0272,-0.0264,-0.0224,-0.0133,-0.0235,-0.0181,-0.0398,-0.0504,-0.0703,-0.0912,-0.0875,-0.1088,-0.1134,-0.1134,-0.1141,-0.1444,-0.1636,-0.1044,-0.1043,-0.1043,-0.1042,0,-0.0531,-0.0555,-0.0512,-0.052,-0.053,-0.0487,-0.0477,-0.0447,-0.0395,-0.0385,-0.0347,-0.0409,-0.0425,-0.0573,-0.0759,-0.0776,-0.0902,-0.0947,-0.1108,-0.1114,-0.1159,-0.117,-0.1456,-0.1041,-0.1041,-0.104,-0.104,0,-0.0639,-0.0654,-0.0625,-0.0615,-0.0617,-0.06,-0.0539,-0.0526,-0.0511,-0.0514,-0.052,-0.0566,-0.0589,-0.0685,-0.0798,-0.0779,-0.0896,-0.0969,-0.0975,-0.1046,-0.1116,-0.1213,-0.1195,-0.1508,-0.1086,-0.1085,-0.1085,0,-0.0678,-0.0691,-0.0747,-0.0723,-0.0733,-0.0787,-0.0751,-0.0756,-0.0763,-0.0731,-0.0771,-0.074,-0.0828,-0.0814,-0.0848,-0.0913,-0.095,-0.0922,-0.1059,-0.1063,-0.1115,-0.1082,-0.1092,-0.1186,-0.1081,-0.1081,-0.1082,0,-0.0724,-0.0814,-0.0816,-0.0817,-0.09,-0.0914,-0.09,-0.0906,-0.0859,-0.0916,-0.0861,-0.0863,-0.0899,-0.0888,-0.0914,-0.093,-0.0952,-0.0991,-0.0995,-0.104,-0.1022,-0.1073,-0.1081,-0.0976,-0.0975,-0.0975,-0.1078,0,-0.0812,-0.0839,-0.0852,-0.0917,-0.0943,-0.0969,-0.1033,-0.1036,-0.1064,-0.1087,-0.1047,-0.1076,-0.1054,-0.1052,-0.107,-0.1024,-0.1065,-0.1089,-0.1118,-0.1071,-0.1126,-0.1128,-0.1125,-0.1126,-0.1127,-0.1128,0,0,-0.0835,-0.0881,-0.0969,-0.0999,-0.1023,-0.1125,-0.1129,-0.1156,-0.1216,-0.1195,-0.1238,-0.1203,-0.1211,-0.1139,-0.1126,-0.1135,-0.1168,-0.1117,-0.1092,-0.1087,-0.1083,-0.1133,-0.1133,-0.1131,-0.1131,-0.1132,-0.1132,0,-0.0889,-0.0945,-0.096,-0.1013,-0.1104,-0.1152,-0.1165,-0.1254,-0.1264,-0.126,-0.1281,-0.1269,-0.1247,-0.1231,-0.1218,-0.1157,-0.1198,-0.115,-0.1079,-0.1102,-0.1096,-0.1091,-0.1138,-0.1137,-0.1135,-0.1135,-0.1135,0,-0.0936,-0.1006,-0.1021,-0.1117,-0.1173,-0.1203,-0.1274,-0.1321,-0.132,-0.1363,-0.1339,-0.1349,-0.134,-0.1297,-0.1279,-0.1292,-0.1234,-0.1232,-0.1226,-0.1213,-0.1239,-0.1232,-0.1225,-0.1313,-0.1313,-0.1314,0,0,-0.0973,-0.1004,-0.1116,-0.1138,-0.1174,-0.1258,-0.1287,-0.1331,-0.1368,-0.1374,-0.1381,-0.1374,-0.1355,-0.1337,-0.133,-0.1284,-0.1316,-0.1252,-0.1244,-0.1236,-0.1219,-0.1243,-0.1236,-0.1315,-0.1315,-0.1315,0,0,-0.0993,-0.111,-0.1145,-0.1179,-0.1247,-0.1343,-0.1349,-0.1391,-0.1397,-0.1392,-0.141,-0.1408,-0.1372,-0.1375,-0.1394,-0.1322,-0.136,-0.1356,-0.1307,-0.1297,-0.1289,-0.1271,-0.1413,0,0,0,0,0,-0.11,-0.11,-0.1131,-0.1151,-0.1259,-0.133,-0.1342,-0.1397,-0.1415,-0.1414,-0.1418,-0.1426,-0.1387,-0.1404,-0.14,-0.1354,-0.1333,-0.133,-0.1327,-0.1256,-0.1245,-0.1236,0,0,0,0,0,0,-0.1109,-0.1133,-0.1132,-0.1229,-0.1255,-0.133,-0.1367,-0.1381,-0.1416,-0.142,-0.1426,-0.1426,-0.1432,-0.1407,-0.1403,-0.1358,-0.1414,-0.1332,-0.1329,-0.1327,-0.1252,-0.1243,-0.1235,0,0,0,0,0,-0.1117,-0.1136,-0.1296,-0.1229,-0.1251,-0.1332,-0.1367,-0.1379,-0.1396,-0.1421,-0.1423,-0.1438,-0.1432,-0.1429,-0.1404,-0.136,-0.1417,-0.1416,-0.133,-0.1328,-0.1326,-0.1247,0,0,0,0,0,0,-0.1122,-0.113,-0.1301,-0.131,-0.1233,-0.1328,-0.1345,-0.1376,-0.1392,-0.1399,-0.1432,-0.1435,-0.1432,-0.1429,-0.1426,-0.1359,-0.1419,-0.1418,-0.1417,-0.1329,-0.1327,-0.1325,0,0,0,0,0,0,-0.112,-0.1136,-0.1305,-0.1308,-0.1317,-0.1324,-0.1339,-0.1321,-0.1389,-0.1399,-0.1405,-0.1433,-0.1416,-0.1429,-0.1427,-0.1398,-0.1421,-0.142,-0.1419,-0.1418,-0.1327,-0.1326,0,0,0,0,0,0,-0.1128,-0.1141,-0.1305,-0.1312,-0.132,-0.1414,-0.1304,-0.1392,-0.1451,-0.1394,-0.1453,-0.1454,-0.1414,-0.1414,-0.1428,-0.1399,-0.1398,-0.1421,-0.142,-0.1419,-0.1419,0,0,0,0,0,0,0,-0.1134,-0.1033,-0.1261,-0.1316,-0.1322,-0.1393,-0.1395,-0.1396,-0.1451,-0.1452,-0.1453,-0.1453,-0.143,-0.1428,-0.1426,-0.1401,0,0,-0.1421,-0.1421,0,0,0,0,0,0,0,0,-0.1028,-0.1032,-0.1262,-0.1264,-0.1266,-0.1393,-0.1394,-0.1395,-0.1451,-0.1452,-0.1453,-0.1453,-0.1429,-0.1428,-0.1427,0,0,0,0,0,0,0,0,0,0,0,0,0,0,0,-0.1262,-0.1264,0,-0.1394,-0.1394,-0.1395,-0.1451,-0.1452,-0.1452,-0.1453,-0.1429,-0.1428,-0.1427,0,0,0,0,0,0,0,0,0,0,0,0,0,0,0,0,0,0,0,0,0,0,0,0,0,0,0,0,0,0,0,0,0,0,0,0,0,0,0,0,0,0,0,0,0,0,0,0,0,0,0,0,0,0,0,0,0,0,0,0,0,0,0,0,0,0,0,0,0]}]],[[{"header":{"parameterUnit":"kt","parameterCategory":2,"dx":1,"dy":1,"la1":30.253999710083008,"la2":30.299108505249023,"lo1":-89.0895004272461,"lo2":-89.04439544677734,"nx":28,"ny":28,"refTime":"2022-09-27T15:00:00:Z","depth":"2","parameterNumber":2,"parameterNumberName":"U-component_of_CURRENTS"},"data":[0.2054,0.2116,0.216,0.2235,0.2281,0.2344,0.2397,0.2605,0.2721,0.2875,0.281,0.3224,0.3075,0.2666,0.2733,0.2571,0.2653,0.25,0.353,0.3083,0.3108,0.3209,0.2975,0,0,0,0,0,0.2058,0.2106,0.2178,0.2267,0.2339,0.2382,0.2514,0.2627,0.2855,0.309,0.3432,0.3167,0.3262,0.324,0.3134,0.3288,0.3084,0.3182,0.2779,0.2816,0.2847,0.2663,0.2502,0.2498,0.2495,0.2491,0,0,0.2096,0.2119,0.2219,0.2289,0.2366,0.245,0.2483,0.2692,0.2874,0.3197,0.347,0.3631,0.3659,0.3821,0.3838,0.3804,0.4046,0.3802,0.3795,0.3796,0.368,0.3622,0.3779,0.3784,0.3788,0.3792,0.3796,0,0.2146,0.219,0.2249,0.2331,0.2403,0.2464,0.2585,0.2665,0.2887,0.3067,0.338,0.3589,0.3943,0.3965,0.4203,0.4205,0.3992,0.4001,0.441,0.3319,0.3242,0.3221,0.3213,0.3349,0.3352,0.3355,0.3356,0.3357,0.2225,0.224,0.2342,0.2386,0.2426,0.2493,0.2564,0.2708,0.2824,0.3124,0.3229,0.3527,0.3753,0.4124,0.4163,0.4318,0.4289,0.405,0.38,0.4075,0.4065,0.403,0.3999,0.3389,0.3385,0.3382,0.3379,0,0.2272,0.2334,0.2371,0.2475,0.2502,0.2541,0.266,0.275,0.2889,0.3053,0.3104,0.3341,0.3591,0.3698,0.3884,0.3901,0.4041,0.4098,0.365,0.3624,0.398,0.3955,0.4308,0.4315,0.4321,0.4325,0.4329,0,0.2354,0.2371,0.2463,0.2479,0.2533,0.2605,0.2682,0.2769,0.291,0.3026,0.3104,0.3231,0.3315,0.3476,0.3499,0.371,0.3709,0.3708,0.3736,0.333,0.3303,0.3438,0.3413,0.3625,0.3623,0.3621,0.3619,0,0.2389,0.2444,0.2477,0.2497,0.2577,0.2617,0.2666,0.2774,0.2838,0.2979,0.3052,0.3158,0.3231,0.3307,0.3381,0.329,0.3594,0.3471,0.3623,0.363,0.3316,0.3291,0.3617,0.3616,0.3616,0.3615,0.3614,0,0.2436,0.2468,0.2498,0.2572,0.2585,0.2606,0.2705,0.2742,0.2854,0.2897,0.2967,0.2981,0.3073,0.2989,0.3166,0.3085,0.3137,0.3166,0.3177,0.3277,0.3221,0.3076,0.3177,0.3274,0.3271,0.3267,0.3264,0,0.2474,0.2498,0.2521,0.2545,0.2559,0.2597,0.2637,0.2681,0.2719,0.2789,0.2801,0.2839,0.2776,0.2793,0.285,0.2903,0.2989,0.2847,0.3057,0.3064,0.3164,0.3331,0.2908,0.313,0.322,0.3225,0.3228,0,0.2487,0.2528,0.2527,0.2557,0.2573,0.2569,0.26,0.2641,0.2701,0.2672,0.2755,0.2716,0.273,0.2728,0.2707,0.2764,0.2916,0.2749,0.2752,0.2877,0.3152,0.3256,0.3296,0.2906,0.291,0.2914,0.3193,0,0.2561,0.256,0.2546,0.2575,0.2572,0.2558,0.258,0.2582,0.2587,0.2607,0.2631,0.2587,0.2609,0.2588,0.2561,0.2655,0.2673,0.2633,0.2628,0.2691,0.2801,0.2829,0.2485,0.2484,0.2483,0.2482,0,0,0.259,0.2584,0.2581,0.2583,0.2591,0.2587,0.2592,0.2585,0.2556,0.2581,0.2547,0.2543,0.25,0.2541,0.2548,0.2504,0.257,0.2513,0.2635,0.2651,0.2667,0.2776,0.2804,0.2481,0.248,0.248,0.248,0,0.2619,0.2605,0.2597,0.2597,0.2594,0.2592,0.259,0.2574,0.2576,0.2547,0.255,0.2542,0.2474,0.2488,0.2483,0.2488,0.2525,0.2473,0.2535,0.2623,0.2641,0.2657,0.2768,0.2793,0.2477,0.2478,0.2478,0,0.2667,0.2667,0.266,0.2638,0.2631,0.2629,0.2629,0.2598,0.2608,0.2564,0.2546,0.252,0.2492,0.2468,0.2452,0.2441,0.2502,0.2419,0.2424,0.245,0.2542,0.2561,0.2578,0.2365,0.2365,0.2365,0,0,0.2696,0.2684,0.2683,0.2647,0.2644,0.2639,0.262,0.2619,0.2591,0.2576,0.2545,0.2518,0.25,0.2476,0.2439,0.2398,0.2449,0.2408,0.2413,0.2418,0.2446,0.2538,0.2556,0.2364,0.2364,0.2364,0,0,0.2704,0.2712,0.2731,0.2685,0.2675,0.2651,0.2621,0.2627,0.2587,0.2588,0.2559,0.2545,0.2512,0.2477,0.2475,0.2452,0.2428,0.2425,0.2478,0.2484,0.2489,0.2538,0.2462,0,0,0,0,0,0.2762,0.2717,0.2735,0.2729,0.2688,0.2651,0.2643,0.2631,0.2647,0.2622,0.2598,0.2581,0.2484,0.248,0.2462,0.248,0.2357,0.2359,0.236,0.2418,0.2424,0.243,0,0,0,0,0,0,0.2759,0.2753,0.2736,0.2715,0.2706,0.2652,0.2672,0.2667,0.2649,0.265,0.2588,0.2579,0.2552,0.2487,0.2471,0.249,0.2467,0.2358,0.2359,0.236,0.242,0.2426,0.243,0,0,0,0,0,0.2758,0.2752,0.2694,0.2714,0.2706,0.2685,0.2673,0.2669,0.265,0.2604,0.2595,0.2645,0.2552,0.2536,0.2477,0.2499,0.2478,0.2472,0.2358,0.2359,0.236,0.2423,0,0,0,0,0,0,0.2756,0.2736,0.2691,0.2687,0.273,0.2687,0.2681,0.2671,0.2604,0.2597,0.2658,0.2659,0.2551,0.2539,0.2527,0.2506,0.2486,0.248,0.2477,0.2359,0.236,0.236,0,0,0,0,0,0,0.274,0.2733,0.2689,0.2709,0.2708,0.2688,0.2684,0.262,0.2602,0.2661,0.2661,0.266,0.2563,0.2541,0.2532,0.2433,0.2493,0.2487,0.2484,0.2481,0.236,0.236,0,0,0,0,0,0,0.2736,0.2731,0.271,0.2709,0.2707,0.2661,0.2629,0.2581,0.2642,0.2662,0.2645,0.2647,0.2564,0.2555,0.2535,0.244,0.2435,0.2493,0.2489,0.2486,0.2485,0,0,0,0,0,0,0,0.2734,0.2777,0.2718,0.2708,0.2707,0.2655,0.2653,0.2652,0.2642,0.2644,0.2645,0.2646,0.2525,0.2519,0.2512,0.2446,0,0,0.2493,0.2491,0,0,0,0,0,0,0,0,0.2779,0.2778,0.2718,0.2718,0.2717,0.2654,0.2653,0.2652,0.2642,0.2643,0.2645,0.2646,0.2523,0.2518,0.2513,0,0,0,0,0,0,0,0,0,0,0,0,0,0,0,0.2718,0.2718,0,0.2654,0.2653,0.2652,0.2643,0.2643,0.2644,0.2645,0.2522,0.2518,0.2513,0,0,0,0,0,0,0,0,0,0,0,0,0,0,0,0,0,0,0,0,0,0,0,0,0,0,0,0,0,0,0,0,0,0,0,0,0,0,0,0,0,0,0,0,0,0,0,0,0,0,0,0,0,0,0,0,0,0,0,0,0,0,0,0,0,0,0,0,0]}],[{"header":{"parameterUnit":"kt","parameterCategory":2,"dx":1,"dy":1,"la1":30.253999710083008,"la2":30.299108505249023,"lo1":-89.0895004272461,"lo2":-89.04439544677734,"nx":28,"ny":28,"refTime":"2022-09-27T15:00:00:Z","depth":"2","parameterNumber":3,"parameterNumberName":"V-component_of_CURRENTS"},"data":[0.0266,0.0387,0.0431,0.0641,0.0714,0.0858,0.0946,0.1122,0.12,0.1302,0.1251,0.1279,0.0601,0.0208,-0.0259,-0.0607,-0.0707,-0.067,-0.0757,-0.0558,-0.0559,-0.0896,-0.0814,0,0,0,0,0,0.0177,0.0235,0.0338,0.0446,0.057,0.0564,0.0724,0.084,0.1024,0.1119,0.1218,0.087,0.0542,0.0023,-0.0554,-0.0922,-0.0906,-0.1068,-0.0948,-0.095,-0.0953,-0.0903,-0.0921,-0.0922,-0.0924,-0.0925,0,0,0.0036,0.0098,0.016,0.0253,0.0335,0.0458,0.0545,0.0666,0.0803,0.0963,0.091,0.0866,0.0471,-0.0113,-0.0508,-0.093,-0.0942,-0.1085,-0.1082,-0.1081,-0.104,-0.1033,-0.1092,-0.1093,-0.1095,-0.1096,-0.1097,0,-0.0078,-0.0065,-0.0016,0.007,0.0143,0.0226,0.0317,0.0407,0.045,0.0528,0.0613,0.0578,0.0252,-0.0038,-0.0533,-0.0756,-0.0982,-0.1046,-0.1131,-0.0904,-0.0891,-0.0926,-0.0927,-0.093,-0.093,-0.0931,-0.0931,-0.0932,-0.0201,-0.017,-0.0133,-0.0084,-0.0075,-0.0002,0.0067,0.0079,0.0173,0.0237,0.0314,0.0203,0.0161,-0.0214,-0.0538,-0.0892,-0.0981,-0.1046,-0.1058,-0.1141,-0.1179,-0.1173,-0.1168,-0.0939,-0.0938,-0.0938,-0.0937,0,-0.0256,-0.0289,-0.0238,-0.0225,-0.0211,-0.0145,-0.0085,0.0002,0.001,0.0117,0.0121,0.0067,-0.008,-0.0321,-0.0549,-0.0738,-0.0944,-0.1036,-0.09,-0.0927,-0.1157,-0.1154,-0.1215,-0.1218,-0.122,-0.1222,-0.1223,0,-0.0364,-0.0333,-0.0363,-0.0342,-0.0255,-0.0297,-0.0188,-0.0181,-0.0143,-0.0053,-0.0156,-0.0102,-0.0318,-0.0423,-0.0621,-0.0828,-0.0791,-0.1002,-0.1048,-0.0928,-0.0925,-0.0989,-0.0991,-0.0958,-0.0957,-0.0957,-0.0956,0,-0.0432,-0.0458,-0.0418,-0.0426,-0.0437,-0.0397,-0.0387,-0.036,-0.0309,-0.0301,-0.0264,-0.0327,-0.0343,-0.0491,-0.0674,-0.069,-0.0817,-0.086,-0.1021,-0.1027,-0.0954,-0.0955,-0.0955,-0.0955,-0.0955,-0.0954,-0.0954,0,-0.0537,-0.0552,-0.0527,-0.0518,-0.052,-0.0505,-0.0447,-0.0436,-0.0423,-0.0426,-0.0434,-0.048,-0.0504,-0.0597,-0.0711,-0.069,-0.0807,-0.0878,-0.0885,-0.0955,-0.1023,-0.0996,-0.0952,-0.0995,-0.0994,-0.0994,-0.0994,0,-0.0573,-0.0588,-0.0643,-0.0622,-0.0633,-0.0687,-0.0653,-0.0659,-0.0667,-0.0637,-0.0677,-0.0648,-0.0735,-0.0721,-0.0756,-0.0819,-0.0858,-0.0829,-0.0965,-0.0969,-0.1021,-0.0992,-0.0864,-0.0948,-0.0989,-0.0989,-0.099,0,-0.0616,-0.0705,-0.0708,-0.071,-0.0793,-0.0808,-0.0796,-0.0803,-0.0759,-0.0817,-0.0764,-0.0767,-0.0803,-0.0792,-0.0818,-0.0835,-0.0858,-0.0894,-0.0897,-0.0943,-0.0931,-0.0982,-0.099,-0.0881,-0.0881,-0.0881,-0.0986,0,-0.0702,-0.0728,-0.0742,-0.0806,-0.0834,-0.086,-0.0924,-0.0928,-0.0957,-0.098,-0.0944,-0.0973,-0.0952,-0.0951,-0.0968,-0.0925,-0.0965,-0.0988,-0.1015,-0.097,-0.1026,-0.1028,-0.102,-0.1021,-0.1022,-0.1023,0,0,-0.0722,-0.0767,-0.0853,-0.0884,-0.0909,-0.101,-0.1016,-0.1043,-0.1103,-0.1085,-0.1126,-0.1094,-0.1103,-0.1034,-0.1021,-0.103,-0.1063,-0.1011,-0.099,-0.0986,-0.0982,-0.1032,-0.1033,-0.1026,-0.1026,-0.1026,-0.1027,0,-0.0774,-0.0828,-0.0844,-0.0896,-0.0988,-0.1036,-0.1049,-0.1138,-0.115,-0.1147,-0.1168,-0.1157,-0.1137,-0.1122,-0.1109,-0.105,-0.1091,-0.1044,-0.0976,-0.0999,-0.0994,-0.0989,-0.1037,-0.1037,-0.103,-0.1029,-0.1029,0,-0.0819,-0.0887,-0.0902,-0.0997,-0.1054,-0.1084,-0.1155,-0.1203,-0.1203,-0.1245,-0.1223,-0.1234,-0.1225,-0.1184,-0.1167,-0.1178,-0.1124,-0.1122,-0.1116,-0.1103,-0.1129,-0.1122,-0.1116,-0.1198,-0.1199,-0.1199,0,0,-0.0854,-0.0885,-0.0996,-0.1018,-0.1054,-0.1138,-0.1167,-0.1211,-0.1249,-0.1256,-0.1264,-0.1258,-0.1239,-0.1222,-0.1215,-0.1171,-0.1203,-0.114,-0.1132,-0.1126,-0.1109,-0.1133,-0.1126,-0.12,-0.12,-0.12,0,0,-0.0875,-0.099,-0.1024,-0.1057,-0.1126,-0.1221,-0.1228,-0.1271,-0.1278,-0.1274,-0.1291,-0.1289,-0.1256,-0.1258,-0.1276,-0.1207,-0.1243,-0.1239,-0.1193,-0.1183,-0.1176,-0.1158,-0.1294,0,0,0,0,0,-0.0979,-0.098,-0.101,-0.103,-0.1136,-0.1208,-0.122,-0.1276,-0.1294,-0.1295,-0.1299,-0.1306,-0.127,-0.1286,-0.1282,-0.1238,-0.1217,-0.1214,-0.1211,-0.1143,-0.1133,-0.1124,0,0,0,0,0,0,-0.0988,-0.1012,-0.101,-0.1107,-0.1133,-0.1208,-0.1245,-0.1259,-0.1295,-0.13,-0.1307,-0.1306,-0.1313,-0.1289,-0.1284,-0.1242,-0.1295,-0.1216,-0.1214,-0.1211,-0.114,-0.1131,-0.1124,0,0,0,0,0,-0.0996,-0.1015,-0.1173,-0.1107,-0.1129,-0.1211,-0.1244,-0.1257,-0.1275,-0.13,-0.1303,-0.1319,-0.1312,-0.1309,-0.1286,-0.1244,-0.1298,-0.1297,-0.1214,-0.1212,-0.1211,-0.1136,0,0,0,0,0,0,-0.1001,-0.1008,-0.1178,-0.1187,-0.1112,-0.1207,-0.1224,-0.1254,-0.1271,-0.1279,-0.1311,-0.1314,-0.1312,-0.1309,-0.1306,-0.1243,-0.13,-0.1299,-0.1298,-0.1213,-0.1211,-0.121,0,0,0,0,0,0,-0.0999,-0.1015,-0.1182,-0.1185,-0.1195,-0.1203,-0.1218,-0.12,-0.1267,-0.1277,-0.1284,-0.1312,-0.1296,-0.1309,-0.1307,-0.1278,-0.1302,-0.1301,-0.13,-0.1299,-0.1212,-0.121,0,0,0,0,0,0,-0.1007,-0.102,-0.1183,-0.119,-0.1198,-0.1292,-0.1183,-0.1271,-0.133,-0.1272,-0.1332,-0.1333,-0.1294,-0.1294,-0.1308,-0.1279,-0.1278,-0.1302,-0.1301,-0.13,-0.13,0,0,0,0,0,0,0,-0.1013,-0.0912,-0.1138,-0.1193,-0.12,-0.1271,-0.1272,-0.1273,-0.133,-0.1331,-0.1332,-0.1333,-0.1311,-0.1309,-0.1307,-0.128,0,0,-0.1302,-0.1302,0,0,0,0,0,0,0,0,-0.0908,-0.0911,-0.1138,-0.1141,-0.1143,-0.1271,-0.1272,-0.1273,-0.133,-0.1331,-0.1332,-0.1332,-0.131,-0.1309,-0.1308,0,0,0,0,0,0,0,0,0,0,0,0,0,0,0,-0.1138,-0.114,0,-0.1271,-0.1272,-0.1273,-0.1331,-0.1331,-0.1332,-0.1332,-0.131,-0.1309,-0.1308,0,0,0,0,0,0,0,0,0,0,0,0,0,0,0,0,0,0,0,0,0,0,0,0,0,0,0,0,0,0,0,0,0,0,0,0,0,0,0,0,0,0,0,0,0,0,0,0,0,0,0,0,0,0,0,0,0,0,0,0,0,0,0,0,0,0,0,0,0]}]],[[{"header":{"parameterUnit":"kt","parameterCategory":2,"dx":1,"dy":1,"la1":30.253999710083008,"la2":30.299108505249023,"lo1":-89.0895004272461,"lo2":-89.04439544677734,"nx":28,"ny":28,"refTime":"2022-09-27T15:00:00:Z","depth":"4","parameterNumber":2,"parameterNumberName":"U-component_of_CURRENTS"},"data":[0.1336,0.1407,0.1362,0.1426,0.1568,0.1766,0.1877,0.2094,0.1888,0.2169,0.1934,0.2353,0.2041,0.2251,0.188,0.1907,0.2294,0.214,0.2135,0.2921,0.2976,0.3025,0.2618,0,0,0,0,0,0.1425,0.1313,0.1503,0.1683,0.1919,0.2143,0.241,0.2537,0.2766,0.2533,0.2593,0.2418,0.2209,0.2073,0.1916,0.2235,0.2543,0.2061,0.2724,0.2956,0.3017,0.26,0,0,0,0,0,0,0.1412,0.1403,0.1575,0.19,0.2193,0.2315,0.2484,0.2545,0.2585,0.284,0.2696,0.2641,0.2785,0.2511,0.2509,0.2489,0.2501,0.2617,0.2692,0.2753,0.2363,0.207,0.1806,0,0,0,0,0,0.1457,0.1572,0.1713,0.2076,0.2346,0.2624,0.287,0.2857,0.3048,0.3373,0.3116,0.3003,0.2919,0.2794,0.2846,0.2886,0.3483,0.3351,0.3386,0.3308,0.316,0.3153,0.3161,0.3247,0.3255,0.326,0.3263,0,0.1565,0.165,0.2065,0.2267,0.2449,0.2708,0.2896,0.3095,0.3179,0.336,0.3391,0.341,0.3408,0.319,0.3335,0.3406,0.3349,0.3507,0.3423,0.3256,0.3236,0.3228,0.3217,0.3312,0.3308,0.3304,0.33,0,0.1671,0.1847,0.2088,0.2426,0.2603,0.2719,0.3037,0.314,0.3281,0.3442,0.3482,0.3546,0.351,0.3669,0.3859,0.3798,0.3799,0.3703,0.4083,0.4085,0.3323,0.3292,0.3392,0.3374,0.3359,0.3347,0.3336,0,0.1828,0.2032,0.232,0.2367,0.267,0.2789,0.3003,0.3137,0.3284,0.3391,0.347,0.3465,0.3685,0.3782,0.3822,0.3713,0.4055,0.3594,0.3578,0.3969,0.394,0.4016,0.3989,0.4225,0.4222,0.422,0.4217,0,0.1769,0.2156,0.2327,0.2415,0.2694,0.2817,0.2972,0.3109,0.3211,0.3343,0.3425,0.3517,0.358,0.3708,0.3708,0.3696,0.3953,0.3979,0.3584,0.355,0.3992,0.3969,0.4215,0.4214,0.4213,0.4213,0.4212,0,0.1818,0.1971,0.2175,0.2478,0.255,0.27,0.2954,0.3079,0.3206,0.3259,0.3312,0.3315,0.3408,0.3319,0.3549,0.3434,0.3528,0.3591,0.3606,0.311,0.3016,0.3596,0.3733,0.3728,0.3723,0.3719,0.3715,0,0.1716,0.1887,0.1987,0.2292,0.2432,0.259,0.2713,0.2862,0.2978,0.3106,0.3095,0.3163,0.3067,0.3073,0.3156,0.3244,0.3364,0.3182,0.3516,0.3527,0.3026,0.3029,0.3319,0.3649,0.3657,0.3663,0.3668,0,0.1559,0.1745,0.1812,0.1952,0.2201,0.2275,0.2484,0.2663,0.2779,0.2903,0.3003,0.302,0.3014,0.303,0.3007,0.31,0.3268,0.3091,0.3099,0.3234,0.3596,0.3023,0.3008,0.3288,0.3294,0.3299,0.3622,0,0.15,0.1671,0.1733,0.1917,0.2001,0.219,0.2289,0.2457,0.2587,0.2635,0.2777,0.2846,0.2924,0.2891,0.2871,0.2986,0.3003,0.2995,0.3029,0.3077,0.3203,0.3239,0.2823,0.2823,0.2823,0.2824,0,0,0.1437,0.1554,0.1565,0.1662,0.1769,0.191,0.2059,0.2146,0.2393,0.2471,0.2489,0.2669,0.2754,0.2833,0.2809,0.2856,0.2943,0.2864,0.3016,0.3036,0.3056,0.3181,0.3215,0.2824,0.2824,0.2824,0.2824,0,0.139,0.1458,0.153,0.1592,0.1755,0.1834,0.1904,0.2052,0.2158,0.237,0.2435,0.2547,0.2718,0.2757,0.2771,0.2853,0.2924,0.2821,0.2864,0.3011,0.3031,0.305,0.3176,0.3206,0.2825,0.2825,0.2825,0,0.133,0.1384,0.1408,0.15,0.1583,0.1692,0.1683,0.1848,0.1971,0.2075,0.2368,0.2422,0.2488,0.2626,0.2719,0.2723,0.2939,0.2838,0.2837,0.2883,0.3039,0.306,0.3079,0.2851,0.2851,0.2851,0,0,0.1317,0.1369,0.1417,0.149,0.1535,0.1627,0.1689,0.1791,0.1939,0.2038,0.221,0.2369,0.2443,0.2567,0.2681,0.2843,0.2938,0.2841,0.284,0.2839,0.2883,0.3037,0.3056,0.2851,0.2851,0.2851,0,0,0.1296,0.134,0.1393,0.1454,0.153,0.1576,0.1667,0.173,0.1937,0.2051,0.216,0.2224,0.2436,0.2512,0.2502,0.2642,0.2643,0.2653,0.2614,0.2614,0.2613,0.2633,0.2505,0,0,0,0,0,0.1277,0.1315,0.1362,0.138,0.1482,0.1539,0.156,0.1668,0.1747,0.182,0.2028,0.207,0.2494,0.2491,0.2542,0.2543,0.2853,0.2853,0.2852,0.2839,0.2837,0.2836,0,0,0,0,0,0,0.1283,0.13,0.1361,0.1396,0.1421,0.1537,0.1573,0.1603,0.1744,0.1766,0.2024,0.2071,0.215,0.2471,0.2516,0.2512,0.249,0.2853,0.2852,0.2852,0.2838,0.2837,0.2836,0,0,0,0,0,0.1289,0.1302,0.1445,0.1398,0.1419,0.1553,0.1577,0.1603,0.1751,0.1893,0.1944,0.1846,0.2142,0.2199,0.2498,0.2488,0.246,0.2476,0.2853,0.2852,0.2852,0.2837,0,0,0,0,0,0,0.1293,0.1329,0.1452,0.1462,0.1431,0.1555,0.1579,0.1602,0.1878,0.192,0.1711,0.1724,0.2137,0.2182,0.2225,0.2472,0.2435,0.2452,0.2462,0.2852,0.2852,0.2852,0,0,0,0,0,0,0.1323,0.1337,0.1457,0.1492,0.1508,0.1556,0.1577,0.1736,0.1887,0.1686,0.17,0.1715,0.2145,0.217,0.2204,0.244,0.2416,0.2432,0.2443,0.245,0.2852,0.2852,0,0,0,0,0,0,0.1331,0.1344,0.1491,0.1502,0.1517,0.1646,0.1709,0.1857,0.1767,0.1677,0.1778,0.1783,0.2134,0.2168,0.2188,0.2408,0.2432,0.2416,0.2427,0.2435,0.244,0,0,0,0,0,0,0,0.1337,0.1227,0.1386,0.1511,0.1524,0.1559,0.1563,0.1566,0.1768,0.1773,0.1777,0.1781,0.2324,0.2342,0.2359,0.2382,0,0,0.2415,0.2422,0,0,0,0,0,0,0,0,0.1224,0.1226,0.1386,0.1388,0.139,0.156,0.1563,0.1565,0.1769,0.1773,0.1776,0.178,0.2329,0.2343,0.2357,0,0,0,0,0,0,0,0,0,0,0,0,0,0,0,0.1386,0.1388,0,0.156,0.1562,0.1565,0.177,0.1773,0.1775,0.1778,0.2333,0.2345,0.2356,0,0,0,0,0,0,0,0,0,0,0,0,0,0,0,0,0,0,0,0,0,0,0,0,0,0,0,0,0,0,0,0,0,0,0,0,0,0,0,0,0,0,0,0,0,0,0,0,0,0,0,0,0,0,0,0,0,0,0,0,0,0,0,0,0,0,0,0,0]}],[{"header":{"parameterUnit":"kt","parameterCategory":2,"dx":1,"dy":1,"la1":30.253999710083008,"la2":30.299108505249023,"lo1":-89.0895004272461,"lo2":-89.04439544677734,"nx":28,"ny":28,"refTime":"2022-09-27T15:00:00:Z","depth":"4","parameterNumber":3,"parameterNumberName":"V-component_of_CURRENTS"},"data":[-0.001,-0.0009,0.004,0.0081,0.01,0.0123,0.0165,0.0194,0.0227,0.028,0.0242,0.0206,0.0105,0.0229,0.0003,-0.0035,-0.0168,-0.0263,-0.0267,-0.0469,-0.0473,-0.0475,-0.0441,0,0,0,0,0,0.0076,0.0073,0.0062,0.0095,0.0128,0.0136,0.017,0.0185,0.0242,0.0283,0.0296,0.0267,0.0161,0.0128,0.0011,-0.0057,-0.0268,-0.0205,-0.0377,-0.0471,-0.0475,-0.044,0,0,0,0,0,0,0.0159,0.014,0.0149,0.0155,0.016,0.0189,0.0189,0.0196,0.0225,0.0245,0.03,0.0248,0.02,0.0049,-0.0021,-0.0146,-0.021,-0.0291,-0.0304,-0.0309,-0.0254,-0.0227,-0.0143,0,0,0,0,0,0.0244,0.0267,0.0223,0.0236,0.0198,0.0189,0.0146,0.0185,0.0183,0.0162,0.0217,0.0168,0.0094,-0.0027,-0.0138,-0.0227,-0.0427,-0.0426,-0.043,-0.0486,-0.0486,-0.0502,-0.0505,-0.0489,-0.0489,-0.049,-0.049,0,0.0375,0.0333,0.0302,0.0281,0.0218,0.0173,0.0142,0.0113,0.0099,0.0118,0.0108,0.0072,0.0014,-0.0087,-0.0218,-0.0357,-0.0372,-0.0434,-0.0493,-0.0492,-0.0507,-0.0509,-0.051,-0.0493,-0.0493,-0.0492,-0.0492,0,0.0459,0.0418,0.0326,0.0235,0.0213,0.0156,0.0101,0.0063,0.0037,0.0034,0.0038,-0.0042,-0.0095,-0.0224,-0.031,-0.0401,-0.0452,-0.0456,-0.0467,-0.0482,-0.0516,-0.0516,-0.0498,-0.0497,-0.0496,-0.0495,-0.0494,0,0.0525,0.0447,0.0382,0.0322,0.0232,0.0142,0.0065,-0.0011,-0.0053,-0.0059,-0.014,-0.0127,-0.0266,-0.0316,-0.0383,-0.0444,-0.0449,-0.0505,-0.0517,-0.0546,-0.0546,-0.0506,-0.0502,-0.0536,-0.0535,-0.0535,-0.0535,0,0.0627,0.0489,0.0387,0.0334,0.0201,0.0116,0.0048,-0.0056,-0.0115,-0.0175,-0.0195,-0.0255,-0.0281,-0.0334,-0.0409,-0.0438,-0.0477,-0.0523,-0.0522,-0.0522,-0.0503,-0.0499,-0.0535,-0.0535,-0.0534,-0.0534,-0.0534,0,0.0635,0.0594,0.045,0.033,0.0291,0.0189,0.0062,-0.006,-0.0164,-0.0245,-0.0286,-0.0334,-0.0364,-0.0398,-0.0462,-0.0462,-0.0494,-0.053,-0.0532,-0.0454,-0.0479,-0.0449,-0.0575,-0.0575,-0.0575,-0.0575,-0.0575,0,0.0721,0.0609,0.0566,0.0421,0.0345,0.0268,0.0128,0.0016,-0.0112,-0.0252,-0.0297,-0.0398,-0.0445,-0.0451,-0.048,-0.052,-0.053,-0.0525,-0.0514,-0.0513,-0.0417,-0.0514,-0.0542,-0.0575,-0.0575,-0.0575,-0.0575,0,0.0799,0.0709,0.0698,0.0645,0.0526,0.0474,0.0288,0.0161,0.0092,-0.0169,-0.0265,-0.0437,-0.0435,-0.0458,-0.048,-0.049,-0.0534,-0.0495,-0.0493,-0.0445,-0.0552,-0.0521,-0.0518,-0.0545,-0.0544,-0.0544,-0.0576,0,0.0807,0.0776,0.0743,0.0674,0.0623,0.0535,0.0415,0.0267,0.0123,0.0027,-0.0165,-0.029,-0.0384,-0.0466,-0.046,-0.0507,-0.0508,-0.0503,-0.0384,-0.0485,-0.0498,-0.0498,-0.0474,-0.0473,-0.0471,-0.047,0,0,0.0879,0.0859,0.0884,0.0823,0.077,0.0746,0.0652,0.0543,0.0308,0.0229,0.0153,-0.0135,-0.0214,-0.0264,-0.0337,-0.0426,-0.0424,-0.0357,-0.0475,-0.0476,-0.0476,-0.049,-0.0491,-0.0468,-0.0468,-0.0467,-0.0467,0,0.0891,0.0928,0.0907,0.0867,0.0815,0.0766,0.0747,0.0591,0.0497,0.0259,0.0216,0.0109,-0.0157,-0.0175,-0.0197,-0.0399,-0.0346,-0.0477,-0.0461,-0.0465,-0.0468,-0.047,-0.0484,-0.0486,-0.0464,-0.0464,-0.0464,0,0.0926,0.093,0.0935,0.0917,0.0879,0.0799,0.0828,0.0758,0.0645,0.0619,0.0335,0.0253,0.0192,0.0005,-0.0078,-0.0026,-0.0235,-0.0228,-0.0238,-0.0173,-0.0169,-0.0176,-0.0181,-0.0087,-0.0085,-0.0084,0,0,0.0929,0.0942,0.0913,0.0914,0.0892,0.0839,0.0808,0.0781,0.0681,0.0641,0.0483,0.0352,0.026,0.0195,0.0059,-0.0105,-0.0063,-0.0178,-0.0196,-0.021,-0.0155,-0.0155,-0.0163,-0.0078,-0.0078,-0.0077,0,0,0.0916,0.0911,0.0933,0.0929,0.0897,0.0825,0.0797,0.0776,0.0666,0.0639,0.0571,0.0541,0.0352,0.0312,0.0399,0.011,0.0178,0.0157,0.0158,0.0135,0.0117,0.0224,0.045,0,0,0,0,0,0.0916,0.0912,0.0933,0.093,0.0883,0.082,0.0806,0.0791,0.0784,0.077,0.0645,0.0669,0.0336,0.0412,0.0377,0.0299,0.0002,-0.0012,-0.0026,-0.0068,-0.0091,-0.0111,0,0,0,0,0,0,0.0914,0.0914,0.0931,0.0869,0.0857,0.082,0.0833,0.0826,0.0789,0.0792,0.0682,0.0665,0.0622,0.0429,0.0398,0.0324,0.0461,-0.0004,-0.0016,-0.0026,-0.0076,-0.0095,-0.0112,0,0,0,0,0,0.0913,0.0912,0.0865,0.0865,0.0855,0.0825,0.0836,0.083,0.0795,0.0712,0.0697,0.0792,0.0622,0.0592,0.041,0.0339,0.0482,0.0471,-0.0012,-0.0021,-0.0029,-0.0085,0,0,0,0,0,0,0.0912,0.0878,0.086,0.0853,0.0903,0.0827,0.0823,0.0835,0.0715,0.0703,0.0819,0.0823,0.062,0.0597,0.0574,0.0345,0.05,0.0488,0.0481,-0.0019,-0.0026,-0.0033,0,0,0,0,0,0,0.0878,0.0873,0.0856,0.0904,0.0902,0.0829,0.0826,0.0695,0.0711,0.0826,0.0828,0.0822,0.0641,0.06,0.0582,0.0378,0.0513,0.0502,0.0494,0.0489,-0.0025,-0.0031,0,0,0,0,0,0,0.0874,0.0869,0.0906,0.0904,0.0902,0.0815,0.0707,0.0651,0.0793,0.0829,0.0802,0.0806,0.0643,0.0625,0.0588,0.0391,0.0381,0.0513,0.0505,0.05,0.0496,0,0,0,0,0,0,0,0.087,0.093,0.0911,0.0904,0.0902,0.0788,0.0785,0.0782,0.0794,0.0797,0.0801,0.0804,0.0577,0.0565,0.0552,0.0402,0,0,0.0514,0.0508,0,0,0,0,0,0,0,0,0.0929,0.0929,0.0911,0.0909,0.0908,0.0787,0.0785,0.0783,0.0794,0.0797,0.08,0.0803,0.0574,0.0564,0.0554,0,0,0,0,0,0,0,0,0,0,0,0,0,0,0,0.091,0.091,0,0.0787,0.0785,0.0783,0.0795,0.0797,0.08,0.0802,0.0571,0.0563,0.0554,0,0,0,0,0,0,0,0,0,0,0,0,0,0,0,0,0,0,0,0,0,0,0,0,0,0,0,0,0,0,0,0,0,0,0,0,0,0,0,0,0,0,0,0,0,0,0,0,0,0,0,0,0,0,0,0,0,0,0,0,0,0,0,0,0,0,0,0,0]}]]]